[[{"header":{"parameterUnit":"m.s-1","parameterCategory":1,"la1":30.2991,"la2":30.254,"lo1":-89.0895,"lo2":-89.0444,"dy":0.0017,"dx":0.0017,"nx":28,"ny":28,"refTime":"2025-06-07T09:00:00:Z","depth":0,"parameterNumber":2,"parameterNumberName":"U-component_of_WINDS"},"data":[0,0,0,0,0,0,0,0,0,0,0,0,0,0,0,0,0,0,0,0,0,0,0,0,0,0,0,0,0,0,0,0,0,0,0,0,0,0,0,0,0,0,0,0,0,0,0,0,0,0,0,0,0,0,0,0,0,0,4.2224,4.2227,0,4.243,4.2432,4.2434,4.24,4.2396,4.2393,4.2389,4.2603,4.2612,4.2621,0,0,0,0,0,0,0,0,0,0,0,0,0,4.1804,4.1812,4.2224,4.2227,4.2229,4.2429,4.2432,4.2435,4.24,4.2396,4.2392,4.2387,4.26,4.2611,4.2622,0,0,0,0,0,0,0,0,0,0,0,0,0,4.1996,4.1815,4.2224,4.2236,4.2239,4.2429,4.2432,4.2436,4.2401,4.2396,4.239,4.2385,4.2597,4.261,4.2623,4.2815,0,0,4.2665,4.2671,0,0,0,0,0,0,0,0,4.1985,4.2012,4.2232,4.2236,4.2239,4.2383,4.2363,4.2563,4.2403,4.234,4.2389,4.2383,4.2535,4.2553,4.2604,4.2825,4.2834,4.2666,4.2674,4.268,4.2684,0,0,0,0,0,0,0,4.1972,4.2002,4.2306,4.2235,4.224,4.2232,4.2253,4.24,4.2465,4.2345,4.2343,4.2367,4.2536,4.2591,4.2608,4.2837,4.2666,4.2678,4.2686,4.2691,4.3224,4.323,0,0,0,0,0,0,4.1955,4.1992,4.2299,4.2312,4.2096,4.2244,4.2268,4.2343,4.2463,4.2477,4.2372,4.2365,4.257,4.2593,4.2616,4.2847,4.268,4.2693,4.27,4.3218,4.3226,4.3232,0,0,0,0,0,0,4.1946,4.1982,4.2291,4.2151,4.219,4.2257,4.2341,4.235,4.2404,4.2484,4.2495,4.2416,4.2567,4.2597,4.2765,4.2854,4.2699,4.2711,4.3211,4.322,4.3229,4.3311,0,0,0,0,0,0,4.1934,4.1979,4.2052,4.2153,4.2197,4.2436,4.2347,4.2358,4.2427,4.242,4.2528,4.2541,4.2565,4.2745,4.2778,4.287,4.2722,4.3203,4.3215,4.3226,4.3301,4.3322,4.334,0,0,0,0,0,4.1919,4.2069,4.2056,4.2094,4.229,4.2441,4.2467,4.249,4.2435,4.2509,4.2559,4.2537,4.2838,4.2762,4.28,4.2897,4.3198,4.3212,4.3225,4.3292,4.3318,4.3339,0,0,0,0,0,0,4.1978,4.2082,4.207,4.2256,4.234,4.2435,4.2529,4.2517,4.262,4.2609,4.2635,4.266,4.283,4.288,4.2794,4.3087,4.3011,4.3032,4.3049,4.3074,4.3093,4.3077,4.2733,0,0,0,0,0,4.2013,4.2126,4.2211,4.2367,4.241,4.2462,4.2529,4.254,4.2629,4.2664,4.2727,4.2815,4.2929,4.3004,4.3114,4.3307,4.333,4.3392,4.3412,4.3428,4.3446,4.3551,4.358,4.3277,4.3276,4.3276,0,0,4.2086,4.2157,4.2227,4.2381,4.2447,4.2564,4.2493,4.262,4.2708,4.2684,4.2846,4.2896,4.2995,4.3176,4.326,4.3223,4.3535,4.3445,4.3457,4.3467,4.3568,4.3597,4.3622,4.3286,4.3284,4.3283,0,0,4.2279,4.2344,4.2481,4.2548,4.2648,4.2682,4.2715,4.2812,4.2843,4.3006,4.299,4.3095,4.3291,4.3362,4.3424,4.3642,4.3625,4.3677,4.378,4.3882,4.3906,4.3927,4.4004,4.4032,4.3695,4.3696,4.3696,0,4.2358,4.2533,4.2553,4.2682,4.275,4.2732,4.287,4.2935,4.3067,4.3115,4.3072,4.3317,4.3383,4.358,4.3633,4.3684,4.3722,4.3665,4.39,4.3922,4.3942,4.4016,4.4045,4.3701,4.3701,4.37,4.3699,0,4.2624,4.2746,4.2844,4.297,4.3049,4.3182,4.3223,4.3301,4.3304,4.3342,4.3508,4.3586,4.371,4.3758,4.3763,4.3956,4.393,4.3894,4.3817,4.3976,4.4046,4.4075,4.3709,4.3707,4.3706,4.3704,0,0,4.2862,4.2995,4.3031,4.3087,4.3196,4.3291,4.3423,4.3543,4.3609,4.37,4.3811,4.3977,4.3943,4.4014,4.4027,4.4116,4.4283,4.4069,4.4071,4.4105,4.4499,4.4526,4.4558,4.4272,4.4277,4.4282,4.449,0,4.3065,4.3297,4.3318,4.3527,4.3639,4.3622,4.3737,4.3817,4.3856,4.3957,4.4,4.4117,4.4064,4.4106,4.4194,4.4244,4.4362,4.4229,4.4376,4.4381,4.4352,4.4595,4.4624,4.4817,4.4518,4.4523,4.4526,0,4.3333,4.343,4.3649,4.374,4.3788,4.3891,4.4002,4.4099,4.4189,4.421,4.4288,4.4288,4.4425,4.4342,4.453,4.4439,4.45,4.4534,4.4542,4.4557,4.4463,4.4616,4.488,4.4908,4.4569,4.4566,4.4563,0,4.3484,4.367,4.3824,4.3873,4.3983,4.4056,4.4105,4.4189,4.4259,4.4357,4.4402,4.4515,4.4577,4.4664,4.4695,4.4632,4.4881,4.4802,4.4904,4.4903,4.4958,4.4954,4.5234,4.4997,4.4997,4.4996,4.4996,0,4.3709,4.3844,4.3893,4.3988,4.4138,4.4161,4.431,4.4356,4.443,4.4534,4.4527,4.4625,4.466,4.4764,4.4789,4.494,4.4969,4.499,4.4996,4.4991,4.4988,4.5032,4.5019,4.5004,4.5002,4.5001,4.4999,0,4.3903,4.3942,4.4109,4.4199,4.4225,4.4331,4.4409,4.4501,4.4537,4.4669,4.4701,4.4759,4.4881,4.492,4.5068,4.5084,4.5261,4.5254,4.523,4.5231,4.5331,4.5321,4.5649,4.5693,4.5427,4.543,4.5432,0,4.4044,4.4147,4.4247,4.4315,4.4367,4.4478,4.4549,4.4575,4.4649,4.4758,4.4837,4.4957,4.5054,4.525,4.5305,4.5418,4.5414,4.5521,4.5431,4.5423,4.5415,4.5408,4.5419,4.5538,4.5541,4.5543,4.5545,0,4.429,4.4303,4.4405,4.4514,4.4598,4.4685,4.4769,4.4826,4.4864,4.4948,4.5071,4.5147,4.5296,4.5416,4.553,4.5582,4.5571,4.5573,4.5602,4.5599,4.5581,4.5591,4.5276,4.5566,4.5564,4.5562,4.5561,4.556,4.4462,4.4552,4.4636,4.4749,4.4815,4.4893,4.4983,4.5029,4.5132,4.5255,4.5264,4.5397,4.5483,4.5635,4.5692,4.5797,4.5767,4.581,4.582,4.5831,4.5838,4.5563,4.5818,4.5818,4.5817,4.5817,4.5816,0,4.4707,4.476,4.4863,4.498,4.5069,4.5048,4.514,4.5216,4.5333,4.5413,4.5508,4.5649,4.5764,4.5828,4.5943,4.6015,4.6012,4.6044,4.6039,4.6051,4.5859,4.5822,4.6044,4.6044,4.6044,4.6044,4.6044,4.6044,4.4845,4.4996,4.5019,4.5201,4.5253,4.5382,4.5436,4.5508,4.5572,4.5729,4.5824,4.5864,4.5938,4.6058,4.6162,4.6178,4.6221,4.6256,4.6268,4.6088,4.6065,4.6042,4.6007,4.6265,4.6265,4.6451,4.6453,4.6454]},{"header":{"parameterUnit":"m.s-1","parameterCategory":1,"la1":30.2991,"la2":30.254,"lo1":-89.0895,"lo2":-89.0444,"dy":0.0017,"dx":0.0017,"nx":28,"ny":28,"refTime":"2025-06-07T09:00:00:Z","depth":0,"parameterNumber":3,"parameterNumberName":"V-component_of_WINDS"},"data":[0,0,0,0,0,0,0,0,0,0,0,0,0,0,0,0,0,0,0,0,0,0,0,0,0,0,0,0,0,0,0,0,0,0,0,0,0,0,0,0,0,0,0,0,0,0,0,0,0,0,0,0,0,0,0,0,0,0,-0.1342,-0.1341,0,-0.1306,-0.1306,-0.1306,-0.1322,-0.1323,-0.1324,-0.1325,-0.1284,-0.1282,-0.128,0,0,0,0,0,0,0,0,0,0,0,0,0,-0.1419,-0.1417,-0.1342,-0.1341,-0.1341,-0.1306,-0.1306,-0.1305,-0.1322,-0.1323,-0.1325,-0.1326,-0.1285,-0.1283,-0.128,0,0,0,0,0,0,0,0,0,0,0,0,0,-0.1384,-0.1417,-0.1342,-0.1345,-0.1345,-0.1306,-0.1306,-0.1305,-0.1322,-0.1323,-0.1325,-0.1326,-0.1286,-0.1283,-0.128,-0.1235,0,0,-0.1271,-0.127,0,0,0,0,0,0,0,0,-0.1386,-0.1382,-0.1345,-0.1345,-0.1345,-0.132,-0.1318,-0.1281,-0.1322,-0.1331,-0.1325,-0.1327,-0.1295,-0.1291,-0.1281,-0.1233,-0.1231,-0.1271,-0.1269,-0.1268,-0.1267,0,0,0,0,0,0,0,-0.1389,-0.1383,-0.1327,-0.1344,-0.1344,-0.1347,-0.1344,-0.1311,-0.1305,-0.133,-0.1331,-0.1327,-0.1295,-0.1284,-0.1281,-0.123,-0.1271,-0.1268,-0.1267,-0.1265,-0.1141,-0.1139,0,0,0,0,0,0,-0.1392,-0.1385,-0.1329,-0.1326,-0.137,-0.1344,-0.1341,-0.1327,-0.1306,-0.1304,-0.1326,-0.1328,-0.1289,-0.1284,-0.1279,-0.1223,-0.1268,-0.1265,-0.1263,-0.1142,-0.114,-0.1139,0,0,0,0,0,0,-0.1393,-0.1386,-0.133,-0.1356,-0.1349,-0.1342,-0.1326,-0.1325,-0.1315,-0.1303,-0.1301,-0.1316,-0.1289,-0.1283,-0.1246,-0.1222,-0.1264,-0.1261,-0.1144,-0.1142,-0.114,-0.1112,0,0,0,0,0,0,-0.1395,-0.1387,-0.1371,-0.1356,-0.1348,-0.1298,-0.1324,-0.1324,-0.131,-0.1312,-0.1293,-0.1291,-0.129,-0.125,-0.1243,-0.1219,-0.1259,-0.1146,-0.1143,-0.114,-0.1115,-0.1109,-0.1104,0,0,0,0,0,-0.1398,-0.1364,-0.137,-0.1363,-0.1327,-0.1297,-0.1292,-0.1293,-0.1308,-0.1291,-0.1283,-0.1292,-0.1226,-0.1246,-0.1238,-0.1213,-0.1148,-0.1144,-0.114,-0.1118,-0.111,-0.1104,0,0,0,0,0,0,-0.1375,-0.1362,-0.1368,-0.1328,-0.1314,-0.13,-0.1278,-0.1285,-0.1265,-0.1267,-0.1268,-0.1263,-0.1224,-0.1215,-0.1237,-0.1167,-0.1189,-0.1184,-0.1174,-0.1167,-0.1162,-0.1164,-0.1256,0,0,0,0,0,-0.1365,-0.1343,-0.1332,-0.1298,-0.129,-0.1286,-0.1272,-0.1274,-0.1258,-0.1252,-0.1241,-0.1224,-0.12,-0.1183,-0.116,-0.1114,-0.1109,-0.1093,-0.1088,-0.1084,-0.1078,-0.1052,-0.1044,-0.1127,-0.1127,-0.1127,0,0,-0.1344,-0.1335,-0.132,-0.1293,-0.1282,-0.1257,-0.128,-0.1253,-0.1234,-0.1247,-0.1211,-0.1202,-0.1183,-0.1141,-0.1122,-0.1132,-0.1055,-0.1079,-0.1076,-0.1073,-0.1048,-0.104,-0.1033,-0.1125,-0.1125,-0.1126,0,0,-0.1294,-0.1285,-0.1255,-0.1244,-0.1227,-0.1224,-0.1217,-0.1202,-0.1197,-0.1162,-0.117,-0.1147,-0.1105,-0.1091,-0.1078,-0.1022,-0.1029,-0.1015,-0.0985,-0.096,-0.0953,-0.0947,-0.0926,-0.0918,-0.101,-0.101,-0.101,0,-0.127,-0.1235,-0.1239,-0.1211,-0.1198,-0.121,-0.1178,-0.1167,-0.1142,-0.1132,-0.1145,-0.1092,-0.108,-0.1034,-0.1021,-0.1011,-0.1001,-0.1016,-0.0954,-0.0948,-0.0943,-0.0922,-0.0915,-0.1008,-0.1008,-0.1009,-0.1009,0,-0.1206,-0.1181,-0.1158,-0.1136,-0.1121,-0.1091,-0.1089,-0.1072,-0.1075,-0.107,-0.1033,-0.1019,-0.0993,-0.0982,-0.0985,-0.0936,-0.0943,-0.0955,-0.0977,-0.0933,-0.0914,-0.0906,-0.1006,-0.1006,-0.1007,-0.1007,0,0,-0.1138,-0.1119,-0.1111,-0.11,-0.1083,-0.1063,-0.1033,-0.1009,-0.0994,-0.0977,-0.0951,-0.0916,-0.0927,-0.0912,-0.0913,-0.0891,-0.0845,-0.0905,-0.0905,-0.0893,-0.0789,-0.0779,-0.077,-0.0851,-0.0849,-0.0848,-0.079,0,-0.1086,-0.1036,-0.1038,-0.099,-0.0966,-0.0977,-0.0951,-0.0937,-0.0932,-0.0909,-0.0903,-0.0877,-0.0894,-0.0886,-0.0864,-0.0856,-0.0824,-0.086,-0.0824,-0.0823,-0.0827,-0.076,-0.075,-0.0696,-0.0783,-0.0782,-0.0781,0,-0.1018,-0.1,-0.095,-0.0935,-0.0925,-0.0902,-0.088,-0.0859,-0.0842,-0.084,-0.0824,-0.0828,-0.0796,-0.082,-0.0775,-0.0799,-0.0785,-0.0778,-0.0776,-0.0771,-0.0798,-0.0752,-0.0679,-0.067,-0.0769,-0.077,-0.0771,0,-0.0972,-0.0935,-0.09,-0.0891,-0.0874,-0.0857,-0.0849,-0.0834,-0.0819,-0.0799,-0.0788,-0.0765,-0.0751,-0.0731,-0.0728,-0.0746,-0.0683,-0.0707,-0.0678,-0.0678,-0.0663,-0.0663,-0.0584,-0.0656,-0.0656,-0.0656,-0.0656,0,-0.0912,-0.0881,-0.0879,-0.0858,-0.0823,-0.0825,-0.0789,-0.0782,-0.0769,-0.0745,-0.0753,-0.073,-0.0728,-0.0704,-0.0701,-0.0663,-0.0657,-0.0653,-0.0652,-0.0652,-0.0652,-0.0641,-0.0644,-0.0654,-0.0655,-0.0655,-0.0655,0,-0.0854,-0.0853,-0.0815,-0.0802,-0.0798,-0.0772,-0.076,-0.0739,-0.0735,-0.0704,-0.0697,-0.0689,-0.0661,-0.0657,-0.0623,-0.0622,-0.0576,-0.058,-0.0582,-0.0582,-0.0553,-0.0555,-0.0463,-0.045,-0.0531,-0.0531,-0.053,0,-0.0816,-0.0792,-0.0776,-0.0762,-0.0753,-0.0729,-0.0714,-0.0715,-0.0699,-0.0678,-0.0658,-0.0631,-0.061,-0.0564,-0.0554,-0.0528,-0.0531,-0.05,-0.0527,-0.0526,-0.0528,-0.0529,-0.0526,-0.0494,-0.0494,-0.0493,-0.0492,0,-0.0746,-0.0747,-0.0726,-0.0704,-0.0686,-0.0669,-0.0652,-0.0639,-0.0638,-0.0619,-0.0591,-0.0575,-0.0541,-0.0513,-0.0488,-0.0477,-0.0483,-0.0484,-0.0476,-0.0474,-0.0475,-0.0473,-0.0566,-0.0486,-0.0487,-0.0487,-0.0487,-0.0488,-0.0696,-0.0675,-0.0661,-0.0637,-0.0625,-0.0609,-0.0588,-0.0582,-0.0559,-0.0533,-0.0534,-0.0503,-0.0486,-0.0452,-0.044,-0.0414,-0.0424,-0.0412,-0.0409,-0.0406,-0.0402,-0.0481,-0.041,-0.041,-0.041,-0.041,-0.041,0,-0.0626,-0.0617,-0.0595,-0.0573,-0.0553,-0.0563,-0.0545,-0.0528,-0.0501,-0.0485,-0.0464,-0.0431,-0.0404,-0.0393,-0.0366,-0.0347,-0.035,-0.034,-0.0341,-0.0338,-0.0396,-0.0405,-0.0339,-0.0339,-0.0339,-0.0339,-0.0339,-0.0339,-0.0587,-0.0552,-0.055,-0.0509,-0.05,-0.0471,-0.0459,-0.0444,-0.0432,-0.0395,-0.0373,-0.0367,-0.0352,-0.0324,-0.0299,-0.0297,-0.0285,-0.0274,-0.0273,-0.0327,-0.0334,-0.0341,-0.0349,-0.0272,-0.0272,-0.0217,-0.0216,-0.0216]}]]